Showing default

MOHAMMED VI-B, 43717

Orbit data source: Space-Track

MOHAMMED VI-B, 43717 is a payload satellite owned by RMAF (MA) in SSO that was launched on Wed, 21 Nov 2018 UTC via a VEGA launch vehicle from the French Guiana (FRGUI). Payload-class satellites include a variety of spacecraft equipped with specific instruments for various scientific and technological missions. These include communications satellites like Starlink; space stations such as the ISS; scientific satellites like the Hubble; Earth observation satellites from companies like Planet Labs, Umbra, and HawkEye 360; GPS; miniature CubeSats for education and research; and military/defense satellites.

Loading next visibility...
Identifier
43717, 2018-095A
Orbit
SSO
Country
Flag of MAMA
Related business
Manufacturer
Airbus/Toulouse
Mission
Operational Defense Imaging
Bus & Motor
ASTROSAT-1000, Unknown motor
Mass
1,108 kg wet, ~900 kg dry
Launch date (UTC)
2018-11-21 (7 years ago)
Launch vehicle
VEGA
Launch site
French Guiana (FRGUI)
Object type
Payload
Rocket body
Debris
Shape & HBR
Hex Cyl + 3 Pan, 4.0 m
Radar Cross Section
12.145 m², Large (>1 m²)

Expand to show TLE details & history
Last TLE update: 7 hours ago

TLE from 7 hours ago
0 MOHAMMED VI-B
1 43717U 18095A   25300.95750214  .00001206  00000-0  17800-3 0  9996
2 43717  97.9617  11.5869 0001211  99.8591 260.2756 14.77065838373908
Epoch: 2025-10-27T22:58Z
TLE epoch observation values (Epoch: 2025-10-27T22:58:48.184Z)
Latitude
-0.00004°
Longitude
-9.66575°
Altitude
641.76 km
Speed
7.537 km/s
True Right ascension
00h 46m 20s
True Declination
0° 00' 00"
Sunlit
Object was in full shadow at epoch
Visualization orbit readout
Latitude
Unknown
Longitude
Unknown
Altitude
Unknown
Speed
Unknown
Apparent Right ascension
Unknown
Apparent Declination
Unknown
Sunlit
N/A
Visualization observer readout
Local Sidereal Time
01:04:25
Azimuth
Unknown
Elevation
Unknown
Doppler factor
Unknown
Orbital elements
Apogee altitude
636.498 km
Perigee altitude
634.799 km
Semi-major axis
7,013.786 km
Eccentricity
0.00012
Inclination
97.9617°
RAAN
11.5869°
Arg. of periapsis
99.8591°
True anomaly
260.26192°
Mean anomaly
260.2756°
Eccentric anomaly
260.26876°
Mean motion
3.695 °/min
Orbital period
97.43 mins
BSTAR
0.000178
Loading maneuver chart data...
Computing Atmospheric mass density...
Loading historical data...
Loading historical data...
Loading historical data...
Loading historical data...
Loading historical data...
Loading historical data...
Loading historical data...
Other satellites on launch #95 in the year 2018 (2018-11-21 UTC)

Documentation

Showing up to 5 results
|